{"data":{"norad_id":57710,"epoch":"2026-09-20T22:18:53.833536Z","epoch_age_seconds":93957,"freshness":"FRESH","line1":"1 57710U 23129N   26263.92978974  .00000517  00000+0  28324-4 0  9996","line2":"2 57710  43.0046  95.1511 0001768 258.7318 101.3335 15.27573566170547","mean_motion":15.27573566,"eccentricity":0.0001768,"inclination_deg":43.0046,"raan_deg":95.1511,"arg_perigee_deg":258.7318,"mean_anomaly_deg":101.3335,"bstar":2.8324e-5,"rev_number":17054,"period_min":94.267145756566,"perigee_km":481.85530070992,"apogee_km":484.28142292586,"semimajor_km":6861.2053618179,"source":"CELESTRAK","updated_at":"2026-09-21T09:00:33.675833Z"}}